Home > Weather > San Antonio > Past weeks

Flag for USA Past Weather in San Antonio, Texas, USA — Yesterday and Last 2 Weeks

Now
81 °F

Cloudy.


Feels Like: 86 °F
Forecast: 75 / 87 °F
Wind: 14 mph from Southeast

Location: San Antonio International Airport

Current Time: May 24, 2016 at 12:45:06 PM

Latest Report: May 24, 2016 at 11:51 AM


Visibility: 10 mi

Pressure: 29.89 "Hg

Humidity: 77%

Dew Point: 73 °F

Location of San AntonioLocation

Past Weather in San Antonio — Graph

°F

San Antonio Temperature Yesterday

Maximum temperature yesterday: 86 °F (at 3:51 PM)
Minimum temperature yesterday: 72 °F (at 2:51 AM)
Average temperature yesterday: 78 °F

High & Low Weather Summary for the Past Weeks

 TemperatureHumidityPressure
High90 °F (May 10, 2:51 PM)97% (May 23, 8:51 AM)30.14 "Hg (May 23, 8:51 AM)
Low61 °F (May 19, 8:51 AM)45% (May 9, 5:51 PM)29.68 "Hg (May 9, 6:51 PM)
Average74 °F79%29.92 "Hg
* Reported May 9 11:51 AM — May 24 11:51 AM, San Antonio, Weather by CustomWeather, © 2016

Note: Actual official high and low records may vary slightly from our data, if they occured in-between our weather recording intervals... More about our weather records

Advertising

San Antonio Weather History for the Previous 24 Hours

Scroll right to see more
 ConditionsComfort  
Time TempWeatherWind HumidityBarometerVisibility
11:51 AM
Tue, May 24
81 °FCloudy.14 mph77%29.89 "Hg10 mi
10:51 AM79 °FCloudy.12 mph79%29.89 "Hg10 mi
9:51 AM78 °FCloudy.8 mph82%29.90 "Hg10 mi
8:51 AM77 °FMostly cloudy.10 mph88%29.89 "Hg10 mi
8:00 AM76 °FMostly cloudy.9 mph88%29.93 "Hg9 mi
6:51 AM75 °FMostly cloudy.9 mph90%29.85 "Hg8 mi
5:51 AM74 °FMostly cloudy.9 mph94%29.83 "Hg8 mi
4:51 AM74 °FMostly cloudy.10 mph94%29.82 "Hg8 mi
3:51 AM74 °FMostly cloudy.8 mph94%29.82 "Hg8 mi
2:51 AM75 °FMostly cloudy.9 mph90%29.84 "Hg8 mi
1:51 AM76 °FMostly cloudy.13 mph91%29.85 "Hg8 mi
12:51 AM76 °FLight rain. Fog.14 mph91%29.87 "Hg6 mi
11:51 PM
Mon, May 23
77 °FMostly cloudy.15 mph88%29.85 "Hg9 mi
10:51 PM78 °FMostly cloudy.10 mph84%29.85 "Hg10 mi
9:51 PM78 °FMostly cloudy.13 mph84%29.82 "Hg10 mi
8:51 PM79 °FMostly cloudy.13 mph82%29.81 "Hg10 mi
7:51 PM80 °FMostly cloudy.18 mph79%29.78 "Hg10 mi
6:51 PM82 °FBroken clouds.20 mph74%29.76 "Hg10 mi
5:51 PM84 °FBroken clouds.21 mph72%29.73 "Hg10 mi
4:51 PM86 °FScattered clouds.18 mph70%29.75 "Hg10 mi
3:51 PM86 °FScattered clouds.16 mph70%29.78 "Hg10 mi
2:51 PM83 °FBroken clouds.12 mph72%29.81 "Hg10 mi
1:51 PM84 °FBroken clouds.13 mph70%29.81 "Hg10 mi
12:51 PM81 °FCloudy.7 mph77%29.83 "Hg10 mi
Weather by CustomWeather, © 2016

See weather overviewHow to use our weather pages